Tracking 19709 objects as of 20-Jun-2019
HD Live streaming from Space Station
objects crossing your sky now

COSMOS 1996

Track COSMOS 1996 now!
10-day predictions
COSMOS 1996 is classified as:


NORAD ID: 19787
Int'l Code: 1989-009C
Perigee: 1,411.9 km
Apogee: 1,424.7 km
Inclination: 82.6 °
Period: 114.0 minutes
Semi major axis: 7789 km
RCS: 1.1678 m2 (large)
Launch date: February 10, 1989
Source: Commonwealth of Independent States (former USSR) (CIS)
Launch site: PLESETSK MISSILE AND SPACE COMPLEX (PKMTR)
aabbcc
Your satellite tracking list
Your tracking list is empty




NASA's NSSDC Master Catalog

Two Line Element Set (TLE):
1 19787U 89009C   19170.50880458 +.00000010 +00000-0 -54458-5 0  9997
2 19787 082.6122 190.2888 0008190 087.8232 065.2367 12.62857465398969
Source of the keplerian elements: AFSPC